User: anonymous   Login
Location: Unspecified
(0.0000°N, 0.0000°E)
Time: 15:20:49
(UTC+00:00)
Language:

DNEPR OBJECT AF - Orbit

View from above orbital plane
View from above orbital plane
View from above satellite
View from above satellite

Ground track
Ground track

The orbit data is extracted from the following two-line orbital elements,

1 39445U 13066AF  17228.93124408 +.00000262 +00000-0 +39040-4 0  9992
2 39445 097.6274 269.2897 0059962 069.1124 291.6495 14.81357321199986
Epoch (UTC): 16 August 2017 22:20:59
Eccentricity: 0.0059962
inclination: 97.6274°
perigee height: 583 km
apogee height: 667 km
right ascension of ascending node: 269.2897°
argument of perigee: 69.1124°
revolutions per day: 14.81357321
mean anomaly at epoch: 291.6495°
orbit number at epoch: 19998

The dashed part of the orbit path shows where the satellite is in the earth's shadow,  

DLR